Location: Bogis-Bossey
(46.3500°N, 6.1667°E)
Time: 17:41:48
(UTC+00:00)

NOSS 2-2 (C) - Pass Details

Date: 17 August 2022
Orbit: 433 x 1766 km, 63.3° (Epoch: 28 September)

Event Time Altitude Azimuth Distance (km) Brightness Sun altitude
Rises 20:05:37 0° 209° (SSW) 2,484 6.6 -13.6°
Reaches altitude 10° 20:07:46 10° 205° (SSW) 1,557 5.5 -13.9°
Maximum altitude 20:11:02 58° 125° (SE) 512 2.8 -14.3°
Drops below altitude 10° 20:14:22 10° 46° (NE) 1,595 5.6 -14.8°
Sets 20:16:36 0° 42° (NE) 2,554 6.7 -15.1°
